| time (UTC) | temp F | wind direction | speed MPH | gust MPH | rain 1hr in | rain 24hr in | rain mn in | humidity % | barometer mb |
| 20260506033043 | 60 | 188 | 5.0 | 10.0 | 0.00 | 0.00 | 0.00 | 60 | 1012.3 |
| 20260506032546 | 60 | 188 | 3.0 | 12.0 | 0.00 | 0.00 | 0.00 | 60 | 1012.4 |
| 20260506032046 | 60 | 159 | 6.0 | 12.0 | 0.00 | 0.00 | 0.00 | 60 | 1012.1 |
| 20260506031543 | 60 | 191 | 4.0 | 11.0 | 0.00 | 0.00 | 0.00 | 60 | 1012.3 |
| 20260506031041 | 60 | 211 | 2.0 | 8.0 | 0.00 | 0.00 | 0.00 | 59 | 1012.3 |
| 20260506030542 | 60 | 148 | 3.0 | 8.0 | 0.00 | 0.00 | 0.00 | 59 | 1012.3 |
| 20260506030043 | 60 | 213 | 4.0 | 11.0 | 0.00 | 0.00 | 0.00 | 59 | 1012.3 |
| 20260506025541 | 60 | 173 | 5.0 | 11.0 | 0.00 | 0.00 | 0.00 | 58 | 1012.3 |
| 20260506025041 | 61 | 163 | 5.0 | 14.0 | 0.00 | 0.00 | 0.00 | 58 | 1012.3 |
| 20260506024557 | 61 | 109 | 5.0 | 14.0 | 0.00 | 0.00 | 0.00 | 58 | 1012.3 |
| 20260506024041 | 61 | 119 | 2.0 | 12.0 | 0.00 | 0.00 | 0.00 | 58 | 1012.3 |
| 20260506023541 | 61 | 151 | 2.0 | 13.0 | 0.00 | 0.00 | 0.00 | 57 | 1012.5 |
| 20260506023041 | 61 | 146 | 2.0 | 13.0 | 0.00 | 0.00 | 0.00 | 57 | 1012.5 |
| 20260506022540 | 61 | 143 | 5.0 | 13.0 | 0.00 | 0.00 | 0.00 | 57 | 1012.5 |
| 20260506022040 | 61 | 162 | 3.0 | 12.0 | 0.00 | 0.00 | 0.00 | 57 | 1012.4 |
| 20260506021540 | 61 | 131 | 5.0 | 13.0 | 0.00 | 0.00 | 0.00 | 57 | 1012.5 |
| 20260506021141 | 61 | 173 | 7.0 | 13.0 | 0.00 | 0.00 | 0.00 | 57 | 1012.3 |
| 20260506020538 | 61 | 155 | 5.0 | 12.0 | 0.00 | 0.00 | 0.00 | 57 | 1012.4 |
| 20260506020039 | 61 | 194 | 3.0 | 14.0 | 0.00 | 0.00 | 0.00 | 57 | 1012.5 |
| 20260506015540 | 61 | 192 | 5.0 | 14.0 | 0.00 | 0.00 | 0.00 | 57 | 1012.4 |
| 20260506015039 | 61 | 144 | 3.0 | 11.0 | 0.00 | 0.00 | 0.00 | 57 | 1012.3 |
| 20260506014538 | 61 | 135 | 4.0 | 12.0 | 0.00 | 0.00 | 0.00 | 57 | 1012.4 |
| 20260506014043 | 61 | 149 | 5.0 | 12.0 | 0.00 | 0.00 | 0.00 | 57 | 1012.4 |
| 20260506013542 | 61 | 198 | 4.0 | 12.0 | 0.00 | 0.00 | 0.00 | 57 | 1012.4 |
| 20260506013058 | 61 | 190 | 3.0 | 11.0 | 0.00 | 0.00 | 0.00 | 56 | 1012.3 |
| 20260506012538 | 61 | 175 | 3.0 | 11.0 | 0.00 | 0.00 | 0.00 | 56 | 1012.6 |
| 20260506012038 | 61 | 103 | 3.0 | 8.0 | 0.00 | 0.00 | 0.00 | 56 | 1012.7 |
| 20260506011541 | 61 | 132 | 4.0 | 11.0 | 0.00 | 0.00 | 0.00 | 56 | 1012.6 |
| 20260506011037 | 61 | 171 | 4.0 | 11.0 | 0.00 | 0.00 | 0.00 | 56 | 1012.4 |
| 20260506010536 | 61 | 176 | 3.0 | 9.0 | 0.00 | 0.00 | 0.00 | 55 | 1012.5 |
| 20260506010037 | 61 | 122 | 4.0 | 9.0 | 0.00 | 0.00 | 0.00 | 55 | 1012.4 |
| 20260506005536 | 61 | 199 | 3.0 | 8.0 | 0.00 | 0.00 | 0.00 | 55 | 1012.4 |
| 20260506005035 | 61 | 155 | 4.0 | 8.0 | 0.00 | 0.00 | 0.00 | 55 | 1012.5 |
| 20260506004536 | 61 | 147 | 3.0 | 8.0 | 0.00 | 0.00 | 0.00 | 54 | 1012.4 |
| 20260506004035 | 61 | 146 | 4.0 | 8.0 | 0.00 | 0.00 | 0.00 | 54 | 1012.4 |
| 20260506003535 | 61 | 177 | 2.0 | 9.0 | 0.00 | 0.00 | 0.00 | 53 | 1012.4 |
| 20260506003036 | 61 | 197 | 4.0 | 9.0 | 0.00 | 0.00 | 0.00 | 53 | 1012.3 |
| 20260506002534 | 61 | 178 | 4.0 | 9.0 | 0.00 | 0.00 | 0.00 | 53 | 1012.4 |
| 20260506002037 | 62 | 201 | 3.0 | 10.0 | 0.00 | 0.00 | 0.00 | 52 | 1012.3 |
| 20260506001538 | 62 | 205 | 4.0 | 10.0 | 0.00 | 0.00 | 0.00 | 52 | 1012.1 |
| 20260506001034 | 62 | 116 | 4.0 | 11.0 | 0.00 | 0.00 | 0.00 | 51 | 1012.2 |
| 20260506000534 | 62 | 145 | 6.0 | 14.0 | 0.00 | 0.00 | 0.00 | 51 | 1012.2 |
| 20260506000035 | 62 | 179 | 8.0 | 14.0 | 0.00 | 0.00 | 0.00 | 50 | 1011.9 |
| 20260505235533 | 63 | 192 | 5.0 | 11.0 | 0.00 | 0.00 | 0.00 | 50 | 1012.0 |
| 20260505235033 | 63 | 148 | 4.0 | 15.0 | 0.00 | 0.00 | 0.00 | 49 | 1012.4 |
| 20260505234536 | 63 | 161 | 7.0 | 15.0 | 0.00 | 0.00 | 0.00 | 48 | 1012.4 |
| 20260505234033 | 63 | 141 | 2.0 | 11.0 | 0.00 | 0.00 | 0.00 | 48 | 1012.4 |
| 20260505233535 | 63 | 213 | 4.0 | 13.0 | 0.00 | 0.00 | 0.00 | 48 | 1012.4 |
| 20260505233032 | 64 | 212 | 7.0 | 14.0 | 0.00 | 0.00 | 0.00 | 47 | 1012.2 |
| 20260505232532 | 64 | 122 | 5.0 | 16.0 | 0.00 | 0.00 | 0.00 | 46 | 1012.2 |
| 20260505232032 | 64 | 155 | 8.0 | 18.0 | 0.00 | 0.00 | 0.00 | 46 | 1012.1 |
| 20260505231536 | 64 | 172 | 3.0 | 18.0 | 0.00 | 0.00 | 0.00 | 46 | 1012.2 |
| 20260505231033 | 64 | 144 | 5.0 | 23.0 | 0.00 | 0.00 | 0.00 | 47 | 1012.2 |
| 20260505230531 | 64 | 156 | 8.0 | 23.0 | 0.00 | 0.00 | 0.00 | 45 | 1012.1 |
| 20260505230048 | 64 | 262 | 5.0 | 18.0 | 0.00 | 0.00 | 0.00 | 46 | 1012.1 |
| 20260505225531 | 64 | 134 | 4.0 | 14.0 | 0.00 | 0.00 | 0.00 | 46 | 1012.2 |
| 20260505225031 | 64 | 205 | 3.0 | 17.0 | 0.00 | 0.00 | 0.00 | 47 | 1012.2 |
| 20260505224530 | 65 | 238 | 5.0 | 17.0 | 0.00 | 0.00 | 0.00 | 45 | 1012.0 |
| 20260505224030 | 65 | 165 | 8.0 | 16.0 | 0.00 | 0.00 | 0.00 | 45 | 1012.0 |
| 20260505223530 | 65 | 149 | 5.0 | 17.0 | 0.00 | 0.00 | 0.00 | 46 | 1011.9 |
| 20260505223029 | 65 | 175 | 10.0 | 17.0 | 0.00 | 0.00 | 0.00 | 45 | 1011.7 |
| 20260505222531 | 66 | 200 | 8.0 | 17.0 | 0.00 | 0.00 | 0.00 | 45 | 1011.7 |
| 20260505222029 | 66 | 155 | 5.0 | 12.0 | 0.00 | 0.00 | 0.00 | 45 | 1011.8 |
| 20260505221534 | 66 | 110 | 3.0 | 11.0 | 0.00 | 0.00 | 0.00 | 46 | 1011.9 |
| 20260505221028 | 66 | 139 | 5.0 | 15.0 | 0.00 | 0.00 | 0.00 | 45 | 1012.0 |
| 20260505220529 | 65 | 155 | 6.0 | 17.0 | 0.00 | 0.00 | 0.00 | 45 | 1011.9 |
| 20260505220030 | 66 | 229 | 6.0 | 16.0 | 0.00 | 0.00 | 0.00 | 44 | 1011.8 |
| 20260505215528 | 66 | 184 | 8.0 | 16.0 | 0.00 | 0.00 | 0.00 | 43 | 1011.5 |
| 20260505215027 | 66 | 150 | 6.0 | 14.0 | 0.00 | 0.00 | 0.00 | 43 | 1011.7 |
| 20260505214526 | 66 | 296 | 4.0 | 14.0 | 0.00 | 0.00 | 0.00 | 43 | 1011.8 |
| 20260505214026 | 66 | 221 | 1.0 | 14.0 | 0.00 | 0.00 | 0.00 | 44 | 1011.9 |
| 20260505213525 | 66 | 193 | 4.0 | 20.0 | 0.00 | 0.00 | 0.00 | 43 | 1012.0 |
| 20260505213028 | 66 | 154 | 9.0 | 20.0 | 0.00 | 0.00 | 0.00 | 42 | 1012.0 |
| 20260505212528 | 66 | 136 | 1.0 | 16.0 | 0.00 | 0.00 | 0.00 | 44 | 1011.9 |
| 20260505212025 | 66 | 206 | 5.0 | 16.0 | 0.00 | 0.00 | 0.00 | 42 | 1012.0 |
| 20260505211525 | 66 | 186 | 6.0 | 15.0 | 0.00 | 0.00 | 0.00 | 42 | 1012.0 |
| 20260505211023 | 66 | 150 | 5.0 | 25.0 | 0.00 | 0.00 | 0.00 | 43 | 1012.0 |
| 20260505210523 | 67 | 133 | 10.0 | 25.0 | 0.00 | 0.00 | 0.00 | 42 | 1012.3 |
| 20260505210023 | 67 | 183 | 7.0 | 20.0 | 0.00 | 0.00 | 0.00 | 42 | 1012.2 |
| 20260505205523 | 67 | 202 | 6.0 | 13.0 | 0.00 | 0.00 | 0.00 | 42 | 1012.2 |
| 20260505205023 | 67 | 129 | 4.0 | 17.0 | 0.00 | 0.00 | 0.00 | 41 | 1012.3 |
| 20260505204523 | 67 | 165 | 6.0 | 18.0 | 0.00 | 0.00 | 0.00 | 41 | 1012.1 |
| 20260505204025 | 67 | 213 | 7.0 | 17.0 | 0.00 | 0.00 | 0.00 | 41 | 1012.0 |
| 20260505203521 | 67 | 193 | 8.0 | 20.0 | 0.00 | 0.00 | 0.00 | 41 | 1012.2 |
| 20260505203027 | 68 | 177 | 11.0 | 20.0 | 0.00 | 0.00 | 0.00 | 40 | 1012.4 |
| 20260505202520 | 68 | 144 | 11.0 | 17.0 | 0.00 | 0.00 | 0.00 | 39 | 1012.5 |
| 20260505202020 | 68 | 171 | 6.0 | 17.0 | 0.00 | 0.00 | 0.00 | 39 | 1012.7 |
| 20260505201520 | 69 | 201 | 4.0 | 16.0 | 0.00 | 0.00 | 0.00 | 42 | 1012.4 |
| 20260505201019 | 68 | 188 | 7.0 | 16.0 | 0.00 | 0.00 | 0.00 | 41 | 1012.3 |
| 20260505200521 | 68 | 214 | 5.0 | 13.0 | 0.00 | 0.00 | 0.00 | 40 | 1012.3 |
| 20260505200030 | 68 | 167 | 5.0 | 14.0 | 0.00 | 0.00 | 0.00 | 41 | 1012.4 |
| 20260505195518 | 68 | 269 | 6.0 | 18.0 | 0.00 | 0.00 | 0.00 | 41 | 1012.7 |
| 20260505195017 | 68 | 198 | 6.0 | 14.0 | 0.00 | 0.00 | 0.00 | 42 | 1012.7 |
| 20260505194516 | 68 | 188 | 4.0 | 11.0 | 0.00 | 0.00 | 0.00 | 43 | 1012.7 |
| 20260505194016 | 68 | 155 | 4.0 | 12.0 | 0.00 | 0.00 | 0.00 | 42 | 1012.8 |
| 20260505193515 | 68 | 140 | 5.0 | 11.0 | 0.00 | 0.00 | 0.00 | 42 | 1012.7 |
| 20260505193015 | 68 | 211 | 6.0 | 14.0 | 0.00 | 0.00 | 0.00 | 42 | 1012.6 |
| 20260505192517 | 67 | 186 | 5.0 | 21.0 | 0.00 | 0.00 | 0.00 | 42 | 1012.6 |
| 20260505192014 | 67 | 115 | 9.0 | 21.0 | 0.00 | 0.00 | 0.00 | 42 | 1012.8 |
| 20260505191514 | 67 | 144 | 7.0 | 19.0 | 0.00 | 0.00 | 0.00 | 42 | 1012.9 |
| 20260505191012 | 67 | 160 | 8.0 | 16.0 | 0.00 | 0.00 | 0.00 | 42 | 1012.9 |
| 20260505190515 | 68 | 161 | 10.0 | 16.0 | 0.00 | 0.00 | 0.00 | 41 | 1012.8 |
| 20260505190014 | 68 | 156 | 5.0 | 14.0 | 0.00 | 0.00 | 0.00 | 42 | 1013.0 |
| 20260505185515 | 68 | 146 | 8.0 | 15.0 | 0.00 | 0.00 | 0.00 | 40 | 1013.0 |
| 20260505185011 | 68 | 124 | 6.0 | 20.0 | 0.00 | 0.00 | 0.00 | 42 | 1013.1 |
| 20260505184514 | 69 | 171 | 10.0 | 18.0 | 0.00 | 0.00 | 0.00 | 40 | 1013.4 |
| 20260505184011 | 69 | 188 | 6.0 | 12.0 | 0.00 | 0.00 | 0.00 | 39 | 1013.2 |
| 20260505183510 | 69 | 188 | 4.0 | 12.0 | 0.00 | 0.00 | 0.00 | 39 | 1013.2 |
| 20260505183009 | 69 | 148 | 4.0 | 19.0 | 0.00 | 0.00 | 0.00 | 40 | 1013.1 |
| 20260505182510 | 69 | 147 | 10.0 | 19.0 | 0.00 | 0.00 | 0.00 | 37 | 1013.3 |
| 20260505182009 | 69 | 223 | 6.0 | 19.0 | 0.00 | 0.00 | 0.00 | 37 | 1013.5 |
| 20260505181509 | 69 | 158 | 5.0 | 18.0 | 0.00 | 0.00 | 0.00 | 39 | 1013.5 |
| 20260505181008 | 69 | 122 | 3.0 | 14.0 | 0.00 | 0.00 | 0.00 | 39 | 1013.7 |
| 20260505180510 | 68 | 145 | 4.0 | 14.0 | 0.00 | 0.00 | 0.00 | 40 | 1013.5 |
| 20260505180008 | 68 | 148 | 7.0 | 15.0 | 0.00 | 0.00 | 0.00 | 39 | 1013.7 |
| 20260505175507 | 68 | 135 | 7.0 | 15.0 | 0.00 | 0.00 | 0.00 | 39 | 1013.8 |
| 20260505175007 | 68 | 143 | 8.0 | 17.0 | 0.00 | 0.00 | 0.00 | 39 | 1013.7 |
| 20260505174511 | 67 | 132 | 6.0 | 18.0 | 0.00 | 0.00 | 0.00 | 41 | 1013.9 |
| 20260505174007 | 67 | 130 | 8.0 | 18.0 | 0.00 | 0.00 | 0.00 | 41 | 1013.8 |
| 20260505173509 | 66 | 125 | 5.0 | 15.0 | 0.00 | 0.00 | 0.00 | 43 | 1013.7 |
| 20260505173018 | 67 | 139 | 5.0 | 15.0 | 0.00 | 0.00 | 0.00 | 42 | 1013.8 |
| 20260505172507 | 67 | 110 | 4.0 | 13.0 | 0.00 | 0.00 | 0.00 | 44 | 1013.7 |
| 20260505172006 | 67 | 222 | 4.0 | 12.0 | 0.00 | 0.00 | 0.00 | 45 | 1013.7 |
| 20260505171506 | 66 | 123 | 6.0 | 14.0 | 0.00 | 0.00 | 0.00 | 45 | 1013.6 |
| 20260505171010 | 66 | 134 | 7.0 | 14.0 | 0.00 | 0.00 | 0.00 | 46 | 1013.7 |
| 20260505170504 | 66 | 160 | 6.0 | 15.0 | 0.00 | 0.00 | 0.00 | 46 | 1013.8 |
| 20260505170006 | 66 | 135 | 8.0 | 14.0 | 0.00 | 0.00 | 0.00 | 47 | 1013.9 |
| 20260505165505 | 66 | 156 | 7.0 | 15.0 | 0.00 | 0.00 | 0.00 | 47 | 1013.7 |
| 20260505165005 | 66 | 94 | 8.0 | 15.0 | 0.00 | 0.00 | 0.00 | 45 | 1014.0 |
| 20260505164510 | 66 | 123 | 6.0 | 12.0 | 0.00 | 0.00 | 0.00 | 48 | 1014.0 |
| 20260505164005 | 65 | 157 | 5.0 | 10.0 | 0.00 | 0.00 | 0.00 | 48 | 1014.1 |
| 20260505163504 | 65 | 152 | 4.0 | 10.0 | 0.00 | 0.00 | 0.00 | 48 | 1014.2 |
| 20260505163011 | 66 | 161 | 4.0 | 10.0 | 0.00 | 0.00 | 0.00 | 50 | 1014.4 |
| 20260505162504 | 65 | 136 | 4.0 | 13.0 | 0.00 | 0.00 | 0.00 | 50 | 1014.5 |
| 20260505162003 | 65 | 131 | 7.0 | 13.0 | 0.00 | 0.00 | 0.00 | 50 | 1014.7 |
| 20260505161505 | 65 | 243 | 4.0 | 9.0 | 0.00 | 0.00 | 0.00 | 50 | 1014.6 |
| 20260505161002 | 65 | 152 | 6.0 | 10.0 | 0.00 | 0.00 | 0.00 | 49 | 1014.6 |
| 20260505160503 | 65 | 172 | 6.0 | 10.0 | 0.00 | 0.00 | 0.00 | 50 | 1014.7 |
| 20260505153117 | 68 | 108 | 2.0 | 8.0 | 0.00 | 0.00 | 0.00 | 45 | 1014.7 |
| 20260505152601 | 67 | 177 | 4.0 | 8.0 | 0.00 | 0.00 | 0.00 | 44 | 1014.7 |
| 20260505152101 | 68 | 143 | 2.0 | 6.0 | 0.00 | 0.00 | 0.00 | 44 | 1014.7 |
| 20260505151605 | 68 | 137 | 3.0 | 6.0 | 0.00 | 0.00 | 0.00 | 43 | 1014.8 |
| 20260505151059 | 68 | 147 | 4.0 | 8.0 | 0.00 | 0.00 | 0.00 | 43 | 1014.8 |
| 20260505150600 | 70 | 139 | 3.0 | 6.0 | 0.00 | 0.00 | 0.00 | 37 | 1014.7 |
| 20260505140551 | 65 | 198 | 2.0 | 7.0 | 0.00 | 0.00 | 0.00 | 44 | 1014.7 |
| 20260505125040 | 60 | 107 | 0.0 | 1.0 | 0.00 | 0.00 | 0.00 | 61 | 1014.7 |
| 20260505124538 | 58 | 107 | 0.0 | 1.0 | 0.00 | 0.00 | 0.00 | 64 | 1014.7 |
| 20260505124034 | 57 | 107 | 0.0 | 1.0 | 0.00 | 0.00 | 0.00 | 65 | 1014.7 |
| 20260505123535 | 56 | 107 | 0.0 | 1.0 | 0.00 | 0.00 | 0.00 | 64 | 1014.7 |
| 20260505123034 | 55 | 107 | 0.0 | 1.0 | 0.00 | 0.00 | 0.00 | 66 | 1014.8 |
| 20260505122537 | 55 | 107 | 0.0 | 0.0 | 0.00 | 0.00 | 0.00 | 65 | 1014.9 |
| 20260505122037 | 55 | 107 | 0.0 | 0.0 | 0.00 | 0.00 | 0.00 | 68 | 1014.9 |
| 20260505121537 | 53 | 107 | 0.0 | 0.0 | 0.00 | 0.00 | 0.00 | 70 | 1014.8 |
| 20260505121033 | 52 | 107 | 0.0 | 0.0 | 0.00 | 0.00 | 0.00 | 73 | 1014.9 |
| 20260505120531 | 51 | 107 | 0.0 | 0.0 | 0.00 | 0.00 | 0.00 | 75 | 1014.8 |
| 20260505120032 | 49 | 107 | 0.0 | 0.0 | 0.00 | 0.00 | 0.00 | 79 | 1014.7 |
| 20260505115530 | 47 | 107 | 0.0 | 1.0 | 0.00 | 0.00 | 0.00 | 81 | 1014.6 |
| 20260505115033 | 46 | 107 | 0.0 | 1.0 | 0.00 | 0.00 | 0.00 | 83 | 1014.4 |
| 20260505114537 | 46 | 107 | 0.0 | 1.0 | 0.00 | 0.00 | 0.00 | 84 | 1014.5 |
| 20260505114030 | 45 | 107 | 0.0 | 1.0 | 0.00 | 0.00 | 0.00 | 86 | 1014.4 |
| 20260505113529 | 44 | 107 | 0.0 | 1.0 | 0.00 | 0.00 | 0.00 | 86 | 1014.5 |
| 20260505113028 | 44 | 107 | 0.0 | 1.0 | 0.00 | 0.00 | 0.00 | 86 | 1014.4 |
| 20260505112528 | 44 | 107 | 0.0 | 1.0 | 0.00 | 0.00 | 0.00 | 86 | 1014.4 |
| 20260505112028 | 44 | 107 | 0.0 | 1.0 | 0.00 | 0.00 | 0.00 | 87 | 1014.3 |
| 20260505111534 | 44 | 105 | 0.0 | 0.0 | 0.00 | 0.00 | 0.00 | 86 | 1014.3 |
| 20260505111027 | 44 | 105 | 0.0 | 0.0 | 0.00 | 0.00 | 0.00 | 86 | 1014.4 |
| 20260505110529 | 44 | 105 | 0.0 | 0.0 | 0.00 | 0.00 | 0.00 | 85 | 1014.3 |
| 20260505102019 | 45 | 105 | 0.0 | 1.0 | 0.00 | 0.00 | 0.00 | 81 | 1014.0 |
| 20260505101518 | 46 | 105 | 0.0 | 1.0 | 0.00 | 0.00 | 0.00 | 80 | 1014.0 |
| 20260505101015 | 47 | 105 | 0.0 | 1.0 | 0.00 | 0.00 | 0.00 | 78 | 1014.0 |
| 20260505100514 | 48 | 105 | 0.0 | 1.0 | 0.00 | 0.00 | 0.00 | 76 | 1014.0 |
| 20260505100014 | 48 | 105 | 0.0 | 2.0 | 0.00 | 0.00 | 0.00 | 75 | 1014.0 |
| 20260505095515 | 48 | 105 | 0.0 | 2.0 | 0.00 | 0.00 | 0.00 | 76 | 1014.0 |
| 20260505095012 | 48 | 131 | 1.0 | 2.0 | 0.00 | 0.00 | 0.00 | 75 | 1014.1 |
| 20260505094511 | 49 | 99 | 0.0 | 2.0 | 0.00 | 0.00 | 0.00 | 74 | 1014.0 |
| 20260505094014 | 49 | 113 | 0.0 | 2.0 | 0.00 | 0.00 | 0.00 | 74 | 1013.9 |
| 20260505093509 | 49 | 115 | 0.0 | 2.0 | 0.00 | 0.00 | 0.00 | 74 | 1013.9 |
| 20260505093008 | 50 | 122 | 0.0 | 2.0 | 0.00 | 0.00 | 0.00 | 72 | 1014.0 |
| 20260505092509 | 50 | 109 | 0.0 | 3.0 | 0.00 | 0.00 | 0.00 | 71 | 1014.0 |
| 20260505092008 | 50 | 120 | 1.0 | 3.0 | 0.00 | 0.00 | 0.00 | 72 | 1014.0 |
| 20260505091508 | 49 | 123 | 0.0 | 2.0 | 0.00 | 0.00 | 0.00 | 72 | 1013.9 |
| 20260505091006 | 50 | 146 | 0.0 | 4.0 | 0.00 | 0.00 | 0.00 | 70 | 1013.9 |
| 20260505090505 | 51 | 221 | 1.0 | 4.0 | 0.00 | 0.00 | 0.00 | 69 | 1013.9 |
| 20260505090003 | 52 | 209 | 1.0 | 5.0 | 0.00 | 0.00 | 0.00 | 66 | 1013.9 |
| 20260505085502 | 53 | 237 | 1.0 | 6.0 | 0.00 | 0.00 | 0.00 | 63 | 1013.8 |
| 20260505085105 | 54 | 271 | 1.0 | 6.0 | 0.00 | 0.00 | 0.00 | 62 | 1013.7 |
| 20260505084600 | 54 | 250 | 0.0 | 8.0 | 0.00 | 0.00 | 0.00 | 61 | 1013.6 |
| 20260505084102 | 55 | 264 | 3.0 | 8.0 | 0.00 | 0.00 | 0.00 | 60 | 1013.7 |
| 20260505083559 | 55 | 210 | 2.0 | 8.0 | 0.00 | 0.00 | 0.00 | 60 | 1013.7 |
| 20260505083100 | 55 | 254 | 2.0 | 9.0 | 0.00 | 0.00 | 0.00 | 60 | 1013.7 |
| 20260505082559 | 55 | 248 | 2.0 | 9.0 | 0.00 | 0.00 | 0.00 | 60 | 1013.7 |
| 20260505082058 | 55 | 236 | 2.0 | 9.0 | 0.00 | 0.00 | 0.00 | 59 | 1013.6 |
| 20260505081603 | 55 | 266 | 2.0 | 6.0 | 0.00 | 0.00 | 0.00 | 60 | 1013.6 |
| 20260505081058 | 55 | 235 | 1.0 | 6.0 | 0.00 | 0.00 | 0.00 | 60 | 1013.5 |
| 20260505080556 | 55 | 133 | 2.0 | 7.0 | 0.00 | 0.00 | 0.00 | 61 | 1013.6 |
| 20260505080058 | 55 | 210 | 1.0 | 7.0 | 0.00 | 0.00 | 0.00 | 61 | 1013.6 |
| 20260505075600 | 54 | 266 | 1.0 | 4.0 | 0.00 | 0.00 | 0.00 | 62 | 1013.6 |
| 20260505075056 | 54 | 303 | 0.0 | 5.0 | 0.00 | 0.00 | 0.00 | 62 | 1013.6 |
| 20260505074610 | 54 | 229 | 1.0 | 5.0 | 0.00 | 0.00 | 0.00 | 61 | 1013.5 |
| 20260505074055 | 55 | 221 | 0.0 | 3.0 | 0.00 | 0.00 | 0.00 | 61 | 1013.5 |
| 20260505073555 | 55 | 274 | 1.0 | 4.0 | 0.00 | 0.00 | 0.00 | 61 | 1013.3 |
| 20260505073055 | 55 | 238 | 1.0 | 5.0 | 0.00 | 0.00 | 0.00 | 60 | 1013.3 |
| 20260505072552 | 55 | 113 | 1.0 | 7.0 | 0.00 | 0.00 | 0.00 | 60 | 1013.3 |
| 20260505072052 | 56 | 217 | 3.0 | 7.0 | 0.00 | 0.00 | 0.00 | 59 | 1013.2 |
| 20260505071551 | 56 | 237 | 2.0 | 6.0 | 0.00 | 0.00 | 0.00 | 59 | 1013.2 |
| 20260505071051 | 56 | 231 | 2.0 | 6.0 | 0.00 | 0.00 | 0.00 | 59 | 1013.3 |
| 20260505070550 | 56 | 248 | 3.0 | 8.0 | 0.00 | 0.00 | 0.00 | 59 | 1013.3 |
| 20260505070049 | 56 | 203 | 3.0 | 9.0 | 0.00 | 0.00 | 0.00 | 59 | 1013.5 |
| 20260505065548 | 56 | 216 | 3.0 | 9.0 | 0.00 | 0.00 | 0.00 | 59 | 1013.4 |
| 20260505065048 | 56 | 207 | 3.0 | 7.0 | 0.00 | 0.00 | 0.00 | 59 | 1013.4 |
| 20260505064546 | 56 | 212 | 3.0 | 9.0 | 0.00 | 0.00 | 0.00 | 58 | 1013.5 |
| 20260505064045 | 57 | 207 | 5.0 | 9.0 | 0.00 | 0.00 | 0.00 | 58 | 1013.5 |
| 20260505063544 | 57 | 205 | 5.0 | 9.0 | 0.00 | 0.00 | 0.00 | 57 | 1013.5 |
| 20260505063044 | 57 | 176 | 4.0 | 8.0 | 0.00 | 0.00 | 0.00 | 57 | 1013.6 |
| 20260505062543 | 57 | 226 | 3.0 | 8.0 | 0.00 | 0.00 | 0.00 | 57 | 1013.7 |
| 20260505062042 | 57 | 141 | 2.0 | 6.0 | 0.00 | 0.00 | 0.00 | 57 | 1013.6 |
| 20260505061606 | 57 | 195 | 2.0 | 8.0 | 0.00 | 0.00 | 0.00 | 57 | 1013.7 |
| 20260505061040 | 57 | 212 | 2.0 | 11.0 | 0.00 | 0.00 | 0.00 | 56 | 1013.7 |
| 20260505060541 | 57 | 205 | 3.0 | 11.0 | 0.00 | 0.00 | 0.00 | 56 | 1013.6 |
| 20260505060044 | 57 | 231 | 1.0 | 12.0 | 0.00 | 0.00 | 0.00 | 56 | 1013.8 |
| 20260505055538 | 58 | 226 | 1.0 | 12.0 | 0.00 | 0.00 | 0.00 | 55 | 1013.7 |
| 20260505055040 | 58 | 275 | 1.0 | 11.0 | 0.00 | 0.00 | 0.00 | 55 | 1013.8 |
| 20260505054541 | 58 | 96 | 4.0 | 11.0 | 0.00 | 0.00 | 0.00 | 55 | 1013.7 |
| 20260505054039 | 58 | 182 | 5.0 | 11.0 | 0.00 | 0.00 | 0.00 | 55 | 1013.9 |
| 20260505053535 | 58 | 231 | 2.0 | 8.0 | 0.00 | 0.00 | 0.00 | 55 | 1013.8 |
| 20260505053034 | 58 | 248 | 0.0 | 8.0 | 0.00 | 0.00 | 0.00 | 55 | 1013.8 |
| 20260505052535 | 58 | 234 | 2.0 | 9.0 | 0.00 | 0.00 | 0.00 | 54 | 1013.8 |
| 20260505052035 | 58 | 204 | 2.0 | 12.0 | 0.00 | 0.00 | 0.00 | 54 | 1013.9 |
| 20260505051535 | 58 | 145 | 4.0 | 12.0 | 0.00 | 0.00 | 0.00 | 54 | 1013.9 |
| 20260505051034 | 58 | 209 | 5.0 | 12.0 | 0.00 | 0.00 | 0.00 | 55 | 1013.9 |
| 20260505050532 | 58 | 181 | 5.0 | 17.0 | 0.00 | 0.00 | 0.00 | 54 | 1013.9 |
| 20260505041527 | 58 | 227 | 6.0 | 16.0 | 0.00 | 0.00 | 0.00 | 52 | 1013.9 |
| 20260505041026 | 59 | 149 | 6.0 | 15.0 | 0.00 | 0.00 | 0.00 | 52 | 1013.9 |
| 20260505040525 | 59 | 192 | 6.0 | 18.0 | 0.00 | 0.00 | 0.00 | 52 | 1013.8 |
| 20260505040024 | 59 | 191 | 9.0 | 18.0 | 0.00 | 0.00 | 0.00 | 52 | 1014.0 |
| 20260505035523 | 59 | 174 | 7.0 | 17.0 | 0.00 | 0.00 | 0.00 | 51 | 1014.1 |
| 20260505035023 | 59 | 207 | 7.0 | 14.0 | 0.00 | 0.00 | 0.00 | 51 | 1014.1 |
| 20260505034523 | 58 | 198 | 5.0 | 15.0 | 0.00 | 0.00 | 0.00 | 51 | 1014.3 |
| 20260505034023 | 59 | 184 | 6.0 | 20.0 | 0.00 | 0.00 | 0.00 | 51 | 1014.3 |